Weather in Mníšek pod Brdy

Czech Republic     49°52′01″N   14°15′36″E
temp.,
°C
wind,
m/s
gust,
m/s
humid.,
%
clouds,
%
prec.,
mm/h
press.,
hPa
HPBL,
m
28 november, sun
sun2801:00−1sw129295 0.0 99840
04:000wsw1290100 0.0 99876
07:00−1ssw1189100 0.0 99812
10:000nnw1180100 0.0 998220
13:00+1nw2477100 0.2 996529
16:00−1wnw2596100 0.7 997325
19:00−1wnw129593 1.0 99766
22:00−2wnw1395100 0.1 99893
29 november, mon
mon2901:00−1wnw259574 0.2 999287
04:00−2wsw249796 0.1 1000103
07:00−3w379196 0.1 1002212
10:000wnw4978100 0.0 1003606
13:00+2wnw586696 0.0 10041254
16:00−1w4108597 0.1 1006631
19:00−1w4119185 0.1 1008596
22:00−1w5118669 0.0 1010665
30 november, tue
tue3001:00−1w5118591 0.0 1011590
04:00−1w4119095 0.1 1013681
07:00−1w5128794 0.1 1014747
10:00+1wsw61378100 0.0 1013986
13:00+1wsw81882100 0.2 10091239
16:00+1wsw102184100 0.9 10071133
19:00+1w91885100 1.5 10071028
22:00+1w91893100 0.5 1007988
1 december, wed
wed101:00+2w71694100 0.6 1008878
04:00+2wsw81795100 0.3 1008843
07:00+3wsw71792100 0.8 1007758
10:00+4wsw61691100 0.0 1007870
13:00+5sw71584100 0.0 10041074
16:00+5sw71681100 0.0 10021032
19:00+4sw7168096 0.0 1001879
22:00+4wsw51385100 0.0 1001917
2 december, thu
thu201:00+4wsw41088100 0.2 9991066
04:00+3sw41196100 0.1 999850
07:00+4sw51194100 0.1 9981125
10:00+4wsw41088100 0.3 9991297
13:00+3sw51087100 0.4 998822
16:00+3sw3889100 0.0 999748
19:00+2sw3887100 0.0 998558
22:00+2sw3888100 0.0 999488